User: anonymous   Login
Location: Columbia
(38.9520°N, 92.3340°W)
Time: 04:46:54
(UTC-05:00)
Language:

FENGYUN 3A - Orbit

View from above orbital plane
View from above orbital plane
View from above satellite
View from above satellite

Ground track
Ground track

The orbit data is extracted from the following two-line orbital elements,

1 32958U 08026A   15146.75304119  .00000080  00000-0  57952-4 0  9990
2 32958 098.5052 198.1050 0009014 307.1970 052.8383 14.19557647362585
Epoch (UTC): 26 May 2015 18:04:22
Eccentricity: 0.0009014
inclination: 98.5052°
perigee height: 820 km
apogee height: 833 km
right ascension of ascending node: 198.1050°
argument of perigee: 307.1970°
revolutions per day: 14.19557647
mean anomaly at epoch: 52.8383°
orbit number at epoch: 36258

The dashed part of the orbit path shows where the satellite is in the earth's shadow,  

DLR